Location: Shenandoah County Park
(38.9356°N, 78.4524°W)
Time: 14:04:01
(UTC-05:00)

Vanguard 2 Rocket - Pass Details

Date: 11 December 2023
Orbit: 555 x 3309 km, 32.9° (Epoch: 03 March)

Event Time Altitude Azimuth Distance (km) Brightness Sun altitude
Rises 19:32:14 0° 283° (WNW) 7,178 12.5 -30.4°
Reaches altitude 10° 19:37:45 10° 275° (W) 6,253 12.0 -31.4°
Maximum altitude 19:53:59 33° 221° (SW) 4,359 10.5 -34.6°
Drops below altitude 10° 20:07:19 10° 165° (SSE) 5,095 10.5 -37.2°
Sets 20:11:18 0° 156° (SSE) 5,738 10.8 -37.9°
Enters shadow 20:11:20 - 156° (SSE) 5,744 10.8 -38.0°
